DELTA 1 DEB, 7033

Orbit data source: Space-Track

DELTA 1 DEB, 7033 is space debris in SSO originally from a launch on Tue, 06 Nov 1973 UTC launched from the Air Force Western Test Range (AFWTR). Debris objects in space refer to the collection of defunct objects orbiting the Earth. Examples of debris include non-operational satellites, rocket bodies, and fragments generated from explosions, collisions, or faulty payload assembly.

Loading next visibility...
Identifier
7033, 1973-086Z
Orbit
SSO
Country
Flag of USUS
Related business
Manufacturer
Unknown
Mission
Spacecraft
Bus & Motor
Unknown
Mass
Unknown
Launch date (UTC)
1973-11-06 (52 years ago)
Launch vehicle
Unknown
Launch site
Air Force Western Test Range (AFWTR)
Object type
Payload
Rocket body
Debris
Shape & HBR
Unknown shape, 0.2 m
Radar Cross Section
Medium (>0.1 m² and <1 m²)

Expand to show TLE details & history
Last TLE update: 9 hours ago

TLE from 9 hours ago
0 DELTA 1 DEB
1  7033U 73086Z   25293.04438933  .00000067  00000-0  80037-3 0  9996
2  7033 101.6101 325.1558 0026516  41.2791 347.3148 12.41889704347680
Epoch: 2025-10-20T01:03Z
TLE epoch observation values (Epoch: 2025-10-20T01:03:55.238Z)
Latitude
27.93256°
Longitude
-85.79968°
Altitude
1,481.363 km
Speed
7.134 km/s
True Right ascension
21h 15m 43s
True Declination
27° 48' 13"
Sunlit
Object was in daylight at epoch
Visualization orbit readout
Latitude
Unknown
Longitude
Unknown
Altitude
Unknown
Speed
Unknown
Apparent Right ascension
Unknown
Apparent Declination
Unknown
Sunlit
N/A
Visualization observer readout
Local Sidereal Time
04:37:25
Azimuth
Unknown
Elevation
Unknown
Doppler factor
Unknown
Orbital elements
Apogee altitude
1,517.032 km
Perigee altitude
1,475.273 km
Semi-major axis
7,874.289 km
Eccentricity
0.00265
Inclination
101.6101°
RAAN
325.1558°
Arg. of periapsis
41.2791°
True anomaly
347.24786°
Mean anomaly
347.3148°
Eccentric anomaly
347.28135°
Mean motion
3.10618 °/min
Orbital period
115.9 mins
BSTAR
0.00080037
Loading maneuver chart data...
Computing Atmospheric mass density...
Loading historical data...
Loading historical data...
Loading historical data...
Loading historical data...
Loading historical data...
Loading historical data...
Loading historical data...

Documentation

Showing up to 5 results
|